Погода в Ляховичах

Беларусь     53°02′22″N   26°15′47″E
темп.,
°C
ветер,
м/с
пор.,
м/с
влажн.,
%
обл.,
%
осадки,
мм/ч
давл.,
гПа
погр.,
м
29 июня, ср
ср2900:00+20ссв35825 0.2 101963
03:00+19св338640 0.4 101852
06:00+20ююв128637 0.0 101822
09:00+24ю227139 0.0 1017240
12:00+28вюв225834 0.4 1017875
15:00+27св336796 1.3 1016400
18:00+22всв22765 8.7 1015105
21:00+22юв22768 8.7 101512
30 июня, чт
чт3000:00+18ююв49968 0.6 1016203
03:00+18зюз119595 0.6 101615
06:00+17в369837 0.0 1016165
09:00+21вюв4583100 0.0 1017391
12:00+24в4568100 0.0 1017750
15:00+26в556497 0.0 10171035
18:00+25в457097 0.0 1017944
21:00+22в3883100 0.0 1017178
1 июля, пт
пт100:00+19вюв4118757 0.0 1018217
03:00+17вюв4109026 0.0 1019195
06:00+17вюв36925 0.0 1020119
09:00+22вюв45785 0.0 1020430
12:00+25вюв55620 0.0 10201345
15:00+26в56510 0.0 10191470
18:00+25в57600 0.0 1019680
21:00+20в410775 0.0 1019196
2 июля, сб
сб200:00+18юв411765 0.0 1020210
03:00+16юв4873100 0.0 1021123
06:00+16юв35833 0.0 102189
09:00+21ююв46700 0.0 1021348
12:00+26ююв46495 0.0 10201167
15:00+29ю35410 0.0 10202084
18:00+29ююв24500 0.0 10191731
21:00+23ю22680 0.0 101817
3 июля, вс
вс300:00+19юз3379100 0.0 101940
03:00+17зсз469989 0.1 1019219
06:00+17сз3593100 0.0 1019364
09:00+17зсз4798100 2.8 1019411
12:00+18зсз4594100 0.3 1019509
15:00+18зсз4892100 0.4 1019663
18:00+17зсз5993100 0.1 1019458
21:00+18зсз5993100 0.2 1018372